| time (UTC) | temp C | wind direction | speed KPH | gust KPH | rain 1hr cm | rain 24hr cm | rain mn cm | humidity % | barometer mb |
| 20260902101536 | 14 | 253 | 1.6 | 16.1 | 0.00 | 0.05 | 0.00 | 74 | 1012.0 |
| 20260902100037 | 14 | 260 | 4.8 | 19.3 | 0.00 | 0.05 | 0.00 | 74 | 1012.1 |
| 20260902094535 | 14 | 277 | 6.4 | 17.7 | 0.00 | 0.05 | 0.00 | 74 | 1012.1 |
| 20260902093034 | 14 | 291 | 1.6 | 11.3 | 0.00 | 0.05 | 0.00 | 74 | 1012.1 |
| 20260902091536 | 15 | 290 | 3.2 | 14.5 | 0.00 | 0.05 | 0.00 | 74 | 1012.2 |
| 20260902090108 | 15 | 259 | 3.2 | 14.5 | 0.00 | 0.05 | 0.00 | 73 | 1012.4 |
| 20260902084543 | 15 | 258 | 4.8 | 17.7 | 0.00 | 0.05 | 0.00 | 73 | 1012.2 |
| 20260902083036 | 15 | 269 | 4.8 | 16.1 | 0.00 | 0.05 | 0.00 | 74 | 1012.1 |
| 20260902081605 | 15 | 286 | 8.0 | 22.5 | 0.00 | 0.05 | 0.00 | 74 | 1012.2 |
| 20260902080034 | 15 | 285 | 8.0 | 19.3 | 0.00 | 0.05 | 0.00 | 74 | 1012.3 |
| 20260902074534 | 15 | 299 | 8.0 | 20.9 | 0.00 | 0.05 | 0.00 | 73 | 1012.4 |
| 20260902073035 | 15 | 297 | 6.4 | 12.9 | 0.00 | 0.05 | 0.00 | 72 | 1012.6 |
| 20260902071536 | 15 | 292 | 6.4 | 20.9 | 0.00 | 0.05 | 0.00 | 71 | 1012.7 |
| 20260902070033 | 15 | 291 | 8.0 | 24.1 | 0.00 | 0.05 | 0.00 | 71 | 1012.7 |
| 20260902064537 | 16 | 279 | 9.7 | 20.9 | 0.00 | 0.05 | 0.05 | 71 | 1012.4 |
| 20260902063035 | 15 | 291 | 11.3 | 24.1 | 0.00 | 0.05 | 0.05 | 72 | 1012.6 |
| 20260902061607 | 15 | 282 | 11.3 | 25.7 | 0.03 | 0.05 | 0.05 | 74 | 1012.2 |
| 20260902060036 | 15 | 278 | 11.3 | 22.5 | 0.05 | 0.05 | 0.05 | 76 | 1012.2 |
| 20260902054534 | 15 | 282 | 8.0 | 22.5 | 0.05 | 0.05 | 0.05 | 77 | 1012.6 |
| 20260902053030 | 15 | 287 | 8.0 | 22.5 | 0.05 | 0.05 | 0.03 | 73 | 1012.2 |
| 20260902051530 | 16 | 288 | 9.7 | 24.1 | 0.03 | 0.03 | 0.00 | 66 | 1011.9 |
| 20260902043030 | 17 | 298 | 9.7 | 16.1 | 0.00 | 0.00 | 0.00 | 62 | 1011.7 |
| 20260902041641 | 17 | 291 | 9.7 | 24.1 | 0.00 | 0.00 | 0.00 | 62 | 1011.6 |
| 20260902040143 | 17 | 292 | 9.7 | 35.4 | 0.00 | 0.00 | 0.00 | 62 | 1011.6 |
| 20260902034535 | 17 | 299 | 8.0 | 22.5 | 0.00 | 0.00 | 0.00 | 62 | 1011.4 |
| 20260902033030 | 17 | 300 | 9.7 | 20.9 | 0.00 | 0.00 | 0.00 | 61 | 1011.0 |
| 20260902031536 | 17 | 298 | 11.3 | 20.9 | 0.00 | 0.00 | 0.00 | 61 | 1011.0 |
| 20260902024536 | 18 | 296 | 8.0 | 17.7 | 0.00 | 0.00 | 0.00 | 60 | 1011.2 |
| 20260902023030 | 18 | 291 | 8.0 | 20.9 | 0.00 | 0.00 | 0.00 | 59 | 1010.9 |
| 20260902021628 | 18 | 287 | 8.0 | 20.9 | 0.00 | 0.00 | 0.00 | 57 | 1010.7 |
| 20260902020035 | 18 | 291 | 12.9 | 27.4 | 0.00 | 0.00 | 0.00 | 56 | 1010.3 |
| 20260902014532 | 19 | 282 | 14.5 | 37.0 | 0.00 | 0.00 | 0.00 | 56 | 1010.1 |
| 20260902013150 | 19 | 277 | 12.9 | 32.2 | 0.00 | 0.00 | 0.00 | 56 | 1009.9 |
| 20260902011534 | 19 | 281 | 12.9 | 32.2 | 0.00 | 0.00 | 0.00 | 57 | 1009.7 |
| 20260902010034 | 19 | 292 | 12.9 | 35.4 | 0.00 | 0.00 | 0.00 | 56 | 1009.6 |
| 20260902004535 | 20 | 288 | 16.1 | 35.4 | 0.00 | 0.00 | 0.00 | 55 | 1009.6 |
| 20260902000034 | 20 | 279 | 16.1 | 38.6 | 0.00 | 0.00 | 0.00 | 56 | 1009.6 |
| 20260901234610 | 20 | 281 | 16.1 | 37.0 | 0.00 | 0.00 | 0.00 | 55 | 1009.7 |
| 20260901233034 | 20 | 277 | 16.1 | 32.2 | 0.00 | 0.00 | 0.00 | 54 | 1009.7 |
| 20260901230035 | 20 | 284 | 12.9 | 30.6 | 0.00 | 0.00 | 0.00 | 54 | 1009.8 |
| 20260901224606 | 21 | 277 | 14.5 | 32.2 | 0.00 | 0.00 | 0.00 | 50 | 1009.7 |
| 20260901223034 | 23 | 277 | 14.5 | 38.6 | 0.00 | 0.00 | 0.00 | 48 | 1009.6 |
| 20260901221641 | 23 | 276 | 11.3 | 29.0 | 0.00 | 0.00 | 0.00 | 49 | 1009.5 |
| 20260901220031 | 23 | 282 | 12.9 | 33.8 | 0.00 | 0.00 | 0.00 | 49 | 1009.4 |
| 20260901214531 | 23 | 282 | 14.5 | 33.8 | 0.00 | 0.00 | 0.00 | 49 | 1009.5 |
| 20260901213035 | 22 | 287 | 11.3 | 33.8 | 0.00 | 0.00 | 0.00 | 51 | 1009.5 |
| 20260901211534 | 22 | 282 | 12.9 | 29.0 | 0.00 | 0.00 | 0.00 | 51 | 1009.5 |
| 20260901204640 | 22 | 286 | 12.9 | 25.7 | 0.00 | 0.00 | 0.00 | 52 | 1009.8 |
| 20260901203031 | 22 | 293 | 14.5 | 35.4 | 0.00 | 0.00 | 0.00 | 52 | 1009.8 |
| 20260901201535 | 22 | 302 | 12.9 | 27.4 | 0.00 | 0.00 | 0.00 | 51 | 1009.9 |
| 20260901200031 | 22 | 283 | 8.0 | 22.5 | 0.00 | 0.00 | 0.00 | 52 | 1010.0 |
| 20260901194609 | 22 | 287 | 12.9 | 25.7 | 0.00 | 0.00 | 0.00 | 52 | 1010.2 |
| 20260901193031 | 22 | 296 | 9.7 | 24.1 | 0.00 | 0.00 | 0.00 | 52 | 1010.4 |
| 20260901191534 | 22 | 295 | 9.7 | 22.5 | 0.00 | 0.00 | 0.00 | 53 | 1010.7 |
| 20260901190144 | 22 | 295 | 11.3 | 24.1 | 0.00 | 0.00 | 0.00 | 54 | 1010.8 |
| 20260901184648 | 22 | 301 | 9.7 | 24.1 | 0.00 | 0.00 | 0.00 | 55 | 1010.9 |
| 20260901183033 | 21 | 284 | 8.0 | 20.9 | 0.00 | 0.00 | 0.00 | 58 | 1011.1 |
| 20260901181616 | 21 | 288 | 8.0 | 20.9 | 0.00 | 0.00 | 0.00 | 58 | 1011.2 |
| 20260901180108 | 21 | 289 | 6.4 | 17.7 | 0.00 | 0.00 | 0.00 | 59 | 1011.3 |
| 20260901174537 | 20 | 298 | 8.0 | 20.9 | 0.00 | 0.00 | 0.00 | 61 | 1011.3 |
| 20260901173036 | 18 | 306 | 11.3 | 22.5 | 0.00 | 0.00 | 0.00 | 64 | 1011.1 |
| 20260901164532 | 17 | 296 | 9.7 | 24.1 | 0.00 | 0.00 | 0.00 | 66 | 1011.3 |
| 20260901161528 | 17 | 299 | 11.3 | 27.4 | 0.00 | 0.00 | 0.00 | 67 | 1011.2 |
| 20260901160031 | 16 | 285 | 8.0 | 22.5 | 0.00 | 0.00 | 0.00 | 67 | 1011.3 |
| 20260901154612 | 17 | 289 | 9.7 | 20.9 | 0.00 | 0.00 | 0.00 | 67 | 1011.3 |
| 20260901153036 | 17 | 280 | 8.0 | 22.5 | 0.00 | 0.00 | 0.00 | 67 | 1011.3 |
| 20260901151645 | 16 | 283 | 8.0 | 19.3 | 0.00 | 0.00 | 0.00 | 67 | 1011.1 |
| 20260901150037 | 16 | 286 | 9.7 | 25.7 | 0.00 | 0.00 | 0.00 | 67 | 1010.9 |
| 20260901144534 | 16 | 298 | 8.0 | 19.3 | 0.00 | 0.00 | 0.00 | 68 | 1011.0 |
| 20260901143031 | 16 | 308 | 8.0 | 17.7 | 0.00 | 0.00 | 0.00 | 69 | 1010.9 |
| 20260901141608 | 16 | 302 | 9.7 | 22.5 | 0.00 | 0.00 | 0.00 | 70 | 1010.8 |
| 20260901140038 | 15 | 311 | 6.4 | 19.3 | 0.00 | 0.00 | 0.00 | 70 | 1010.6 |
| 20260901134536 | 16 | 330 | 4.8 | 12.9 | 0.00 | 0.00 | 0.00 | 70 | 1010.4 |
| 20260901133033 | 16 | 345 | 3.2 | 8.0 | 0.00 | 0.00 | 0.00 | 68 | 1010.3 |
| 20260901131607 | 16 | 315 | 1.6 | 9.7 | 0.00 | 0.00 | 0.00 | 67 | 1010.2 |
| 20260901130030 | 16 | 307 | 3.2 | 12.9 | 0.00 | 0.00 | 0.00 | 66 | 1010.1 |
| 20260901124532 | 17 | 297 | 3.2 | 12.9 | 0.00 | 0.00 | 0.00 | 65 | 1009.9 |
| 20260901123109 | 17 | 296 | 8.0 | 20.9 | 0.00 | 0.00 | 0.00 | 65 | 1009.9 |
| 20260901121538 | 17 | 305 | 6.4 | 14.5 | 0.00 | 0.00 | 0.00 | 64 | 1009.8 |
| 20260901120034 | 17 | 311 | 4.8 | 12.9 | 0.00 | 0.00 | 0.00 | 63 | 1009.8 |
| 20260901114607 | 17 | 320 | 4.8 | 12.9 | 0.00 | 0.00 | 0.00 | 62 | 1009.9 |
| 20260901113034 | 17 | 314 | 4.8 | 16.1 | 0.00 | 0.00 | 0.00 | 61 | 1009.7 |
| 20260901111609 | 17 | 312 | 6.4 | 14.5 | 0.00 | 0.00 | 0.00 | 60 | 1009.6 |
| 20260901110036 | 18 | 312 | 6.4 | 12.9 | 0.00 | 0.00 | 0.00 | 59 | 1009.7 |
| 20260901104535 | 18 | 344 | 4.8 | 11.3 | 0.00 | 0.00 | 0.00 | 58 | 1009.6 |